Flag for U.S.A. Weather past 2 weeks in St. Augustine, Florida, U.S.A.

73 °F


Feels Like: 76 °F
Forecast: 67 / 74 °F
Wind: 18 mph from East

Location: St. Augustine Airport

Current Time: Nov 25, 2015 at 4:06:37 PM

Latest Report: Nov 25, 2015 at 2:58 PM

Visibility: 10 mi

Pressure: 30.37 "Hg

Humidity: 66%

Dew point: 61 °F

Location of St. AugustineLocation

Historic Weather in St. Augustine — Graph


St. Augustine temperature yesterday

Maximum temperature yesterday: 69 °F (at 9:58 PM)
Minimum temperature yesterday: 49 °F (at 6:58 AM)
Average temperature yesterday: 62 °F

Past Weeks' High & Low Weather Summary

High84 °F (Nov 12, 1:58 PM)100% (Nov 11, 1:58 AM)30.40 "Hg (Nov 11, 1:58 AM)
Low41 °F (Nov 23, 6:58 AM)43% (Nov 12, 2:58 PM)29.84 "Hg (Nov 22, 2:58 AM)
Average69 °F79%30.12 "Hg
* Reported Nov 10 2:58 PM — Nov 25 2:58 PM, St. Augustine, Weather by CustomWeather, © 2015

Note: Actual official high and low records may vary slightly from our data, if they occured in-between our weather recording intervals... More about our weather records


St. Augustine weather history for previous 24 hours

Time TempWeatherWind HumidityBarometerVisibility
2:58 PM
Wed, Nov 25
73 °FCloudy.18 mph66%30.37 "Hg10 mi
1:58 PM73 °FMostly cloudy.20 mph66%30.37 "Hg10 mi
12:58 PM73 °FMore clouds than sun.20 mph66%30.38 "Hg10 mi
11:58 AM74 °FBroken clouds.20 mph64%30.39 "Hg10 mi
10:58 AM74 °FPartly sunny.17 mph64%30.40 "Hg10 mi
9:58 AM73 °FPartly sunny.22 mph62%30.39 "Hg10 mi
8:58 AM72 °FScattered clouds.18 mph66%30.37 "Hg10 mi
7:58 AM70 °FPassing clouds.17 mph68%30.34 "Hg10 mi
6:58 AM69 °FPassing clouds.18 mph68%30.32 "Hg10 mi
5:58 AM69 °FClear.16 mph68%30.31 "Hg10 mi
4:58 AM69 °FPassing clouds.18 mph68%30.29 "Hg10 mi
3:58 AM69 °FOvercast.16 mph70%30.30 "Hg10 mi
2:58 AM65 °FMostly cloudy.3 mph85%30.31 "Hg10 mi
1:58 AM66 °FOvercast.9 mph73%30.31 "Hg10 mi
12:58 AM69 °FOvercast.22 mph66%30.31 "Hg10 mi
11:58 PM
Tue, Nov 24
67 °FOvercast.9 mph66%30.32 "Hg10 mi
10:58 PM69 °FOvercast.15 mph57%30.32 "Hg10 mi
9:58 PM69 °FMostly cloudy.21 mph59%30.32 "Hg10 mi
8:58 PM68 °FMostly cloudy.16 mph68%30.31 "Hg10 mi
7:58 PM66 °FLight rain. Mostly cloudy.10 mph73%30.30 "Hg10 mi
6:58 PM66 °FPartly cloudy.12 mph68%30.30 "Hg10 mi
5:58 PM67 °FOvercast.15 mph59%30.28 "Hg10 mi
4:58 PM66 °FScattered clouds.12 mph63%30.29 "Hg10 mi
Weather by CustomWeather, © 2015

See weather overviewHow to use our weather pages